CW9803 Weather Reports


time (UTC)temp
C
wind
direction
speed
KPH
gust
KPH
rain 1hr
cm
rain 24hr
cm
rain mn
cm
humidity
%
barometer
mb
20260904171514 10 122 0.0 0.0 0.00 0.00 0.00 79 1012.7
20260904171010 10 122 0.0 0.0 0.00 0.00 0.00 79 1012.7
20260904170505 10 104 0.0 0.0 0.00 0.00 0.00 81 1012.7
20260904170001 8 81 0.0 1.6 0.00 0.00 0.00 84 1012.4
20260904165459 8 110 0.0 0.0 0.00 0.00 0.00 85 1012.5
20260904164959 9 124 0.0 0.0 0.00 0.00 0.00 84 1012.4
20260904164453 9 104 0.0 0.0 0.00 0.00 0.00 84 1012.3
20260904163438 8 98 0.0 0.0 0.00 0.00 0.00 86 1012.2
20260904162938 8 98 0.0 0.0 0.00 0.00 0.00 86 1012.2
20260904162433 8 60 1.6 3.2 0.00 0.00 0.00 86 1012.3
20260904161928 9 138 0.0 1.6 0.00 0.00 0.00 88 1012.4
20260904161424 8 104 1.6 1.6 0.00 0.00 0.00 91 1012.1
20260904160920 7 242 3.2 3.2 0.00 0.00 0.00 93 1012.0
20260904160414 7 134 1.6 3.2 0.00 0.00 0.00 96 1012.4
20260904155909 7 144 1.6 1.6 0.00 0.00 0.00 97 1012.2
20260904155404 7 200 1.6 3.2 0.00 0.00 0.00 98 1012.0
20260904154903 7 80 0.0 1.6 0.00 0.00 0.00 99 1012.0
20260904154357 7 177 1.6 3.2 0.00 0.00 0.00 99 1012.2
20260904153853 7 87 3.2 3.2 0.00 0.00 0.00 99 1012.1
20260904153348 7 17 1.6 4.8 0.00 0.00 0.00 99 1012.0
20260904152845 6 64 1.6 1.6 0.00 0.00 0.00 99 1012.1
20260904152344 6 125 3.2 3.2 0.00 0.00 0.00 99 1012.1
20260904151838 6 201 3.2 3.2 0.00 0.00 0.00 99 1012.1
20260904151338 6 58 4.8 4.8 0.00 0.00 0.00 99 1012.0
20260904150834 6 305 3.2 3.2 0.00 0.00 0.00 99 1011.9
20260904150329 6 131 0.0 0.0 0.00 0.00 0.00 99 1011.9
20260904145826 6 102 1.6 3.2 0.00 0.00 0.00 99 1011.9
20260904145323 6 95 1.6 1.6 0.00 0.00 0.00 99 1012.1
20260904144819 6 44 3.2 3.2 0.00 0.00 0.00 99 1011.9
20260904144314 6 111 1.6 1.6 0.00 0.00 0.00 99 1011.9
20260904143809 6 134 0.0 1.6 0.00 0.00 0.00 99 1011.9
20260904143306 6 98 0.0 0.0 0.00 0.00 0.00 99 1011.8
20260904142802 5 128 0.0 1.6 0.00 0.00 0.00 99 1012.1
20260904142257 6 94 1.6 1.6 0.00 0.00 0.00 99 1011.9
20260904141752 6 71 1.6 1.6 0.00 0.00 0.00 99 1011.8
20260904141248 6 139 0.0 0.0 0.00 0.00 0.00 99 1011.4
20260904140743 6 114 0.0 0.0 0.00 0.00 0.00 99 1011.4
20260904140238 6 144 0.0 0.0 0.00 0.00 0.00 99 1011.6
20260904135737 5 91 0.0 0.0 0.00 0.00 0.00 99 1011.4
20260904135232 6 120 0.0 0.0 0.00 0.00 0.00 99 1011.0
20260904134729 5 117 0.0 0.0 0.00 0.00 0.00 99 1011.2
20260904134228 6 107 0.0 0.0 0.00 0.00 0.00 99 1011.1
20260904133722 5 109 1.6 1.6 0.00 0.00 0.00 99 1010.9
20260904133220 6 65 3.2 3.2 0.00 0.00 0.00 99 1011.0
20260904132718 6 121 0.0 0.0 0.00 0.00 0.00 99 1011.0
20260904132214 5 118 0.0 0.0 0.00 0.00 0.00 99 1010.8
20260904131713 6 121 0.0 0.0 0.00 0.00 0.00 99 1010.9
20260904131209 5 101 1.6 1.6 0.00 0.00 0.00 99 1010.7
20260904130703 5 119 0.0 0.0 0.00 0.00 0.00 99 1010.6
20260904130202 5 122 0.0 0.0 0.00 0.00 0.00 99 1010.8
20260904125659 5 120 0.0 0.0 0.00 0.00 0.00 99 1010.7
20260904125154 5 118 0.0 0.0 0.00 0.00 0.00 99 1010.5
20260904124649 5 117 1.6 1.6 0.00 0.00 0.00 99 1010.5
20260904124145 5 108 0.0 0.0 0.00 0.00 0.00 99 1010.6
20260904123644 5 94 0.0 1.6 0.00 0.00 0.00 99 1010.3
20260904123140 6 70 0.0 1.6 0.00 0.00 0.00 99 1010.3
20260904122635 6 117 0.0 0.0 0.00 0.00 0.00 99 1010.6
20260904122130 6 124 0.0 0.0 0.00 0.00 0.00 99 1010.4
20260904121625 6 106 0.0 1.6 0.00 0.00 0.00 99 1010.3
20260904121121 6 77 0.0 0.0 0.00 0.00 0.00 99 1010.0
20260904120617 6 130 0.0 0.0 0.00 0.00 0.00 99 1010.3
20260904120113 6 154 0.0 0.0 0.00 0.00 0.00 99 1010.3
20260904115608 6 117 0.0 0.0 0.00 0.00 0.00 99 1010.0
20260904115103 6 110 0.0 1.6 0.00 0.00 0.00 99 1010.0
20260904114602 6 111 0.0 0.0 0.00 0.00 0.00 99 1010.3
20260904114057 6 119 0.0 0.0 0.00 0.00 0.00 99 1010.1
20260904113556 6 119 0.0 0.0 0.00 0.00 0.00 99 1009.9
20260904113051 6 119 0.0 0.0 0.00 0.00 0.00 99 1009.8
20260904112546 6 119 0.0 0.0 0.00 0.00 0.00 99 1009.8
20260904112042 6 117 0.0 0.0 0.00 0.00 0.00 99 1009.8
20260904111537 5 125 0.0 0.0 0.00 0.00 0.00 99 1009.7
20260904111032 6 143 0.0 0.0 0.00 0.00 0.00 99 1009.8
20260904110526 6 143 0.0 0.0 0.00 0.00 0.00 99 1009.8
20260904110022 6 139 0.0 0.0 0.00 0.00 0.00 99 1009.8
20260904105516 5 115 0.0 0.0 0.00 0.00 0.00 99 1010.0
20260904105012 5 120 0.0 0.0 0.00 0.00 0.00 99 1009.8
20260904104507 5 120 0.0 0.0 0.00 0.00 0.00 99 1009.8
20260904104003 5 156 0.0 0.0 0.00 0.00 0.00 99 1010.1
20260904103458 5 157 0.0 0.0 0.00 0.00 0.00 99 1009.9
20260904102954 5 157 0.0 0.0 0.00 0.00 0.00 99 1009.8
20260904102449 5 157 0.0 0.0 0.00 0.00 0.00 99 1009.7
20260904101944 5 151 0.0 0.0 0.00 0.00 0.00 99 1009.7
20260904101441 5 151 1.6 1.6 0.00 0.00 0.00 99 1009.6
20260904100931 5 129 0.0 0.0 0.00 0.00 0.00 99 1009.4
20260904100426 5 119 0.0 0.0 0.00 0.00 0.00 99 1009.7
20260904095921 5 119 0.0 0.0 0.00 0.00 0.00 99 1009.5
20260904095416 5 117 0.0 0.0 0.00 0.00 0.00 99 1009.5
20260904094911 5 109 0.0 0.0 0.00 0.00 0.00 99 1009.3
20260904094406 5 114 0.0 0.0 0.00 0.00 0.00 99 1009.4
20260904093902 5 150 0.0 0.0 0.00 0.00 0.00 99 1009.3
20260904093402 5 148 0.0 0.0 0.00 0.00 0.00 99 1009.3
20260904092857 5 147 0.0 0.0 0.00 0.00 0.00 99 1009.3
20260904092353 5 140 0.0 0.0 0.00 0.00 0.00 99 1009.6
20260904091849 6 134 0.0 0.0 0.00 0.00 0.00 99 1009.3
20260904091344 6 163 3.2 3.2 0.00 0.00 0.00 99 1009.3
20260904090839 6 103 0.0 0.0 0.00 0.00 0.00 99 1009.3
20260904090336 6 103 0.0 0.0 0.00 0.00 0.00 99 1009.3
20260904085830 6 103 0.0 0.0 0.00 0.00 0.00 99 1009.0
20260904085325 6 101 0.0 0.0 0.00 0.00 0.00 99 1008.8
20260904084820 6 116 0.0 0.0 0.00 0.00 0.00 99 1009.2
20260904084316 6 116 0.0 0.0 0.00 0.00 0.00 99 1009.0
20260904083812 6 115 0.0 0.0 0.00 0.00 0.00 99 1008.7
20260904083308 6 115 0.0 0.0 0.00 0.00 0.00 99 1009.0
20260904082803 7 106 0.0 0.0 0.00 0.00 0.00 99 1008.7
20260904082258 7 113 0.0 0.0 0.00 0.00 0.00 99 1008.7
20260904081753 7 123 0.0 0.0 0.00 0.00 0.00 99 1008.7
20260904081249 7 126 0.0 0.0 0.00 0.00 0.00 99 1008.7
20260904080744 7 126 0.0 0.0 0.00 0.00 0.00 99 1008.6
20260904080239 7 126 0.0 0.0 0.00 0.00 0.00 99 1008.7
20260904075736 7 125 0.0 0.0 0.00 0.00 0.00 99 1008.7
20260904075231 7 114 0.0 0.0 0.00 0.00 0.00 99 1008.6
20260904074730 7 152 0.0 0.0 0.00 0.00 0.00 99 1009.2
20260904074224 7 139 0.0 0.0 0.00 0.00 0.00 99 1008.8
20260904073720 7 146 0.0 0.0 0.00 0.00 0.00 99 1009.1
20260904073216 7 147 0.0 0.0 0.00 0.00 0.00 99 1008.8
20260904072711 7 174 1.6 3.2 0.00 0.00 0.00 99 1009.1
20260904072206 7 150 0.0 0.0 0.00 0.00 0.00 99 1009.1
20260904071702 7 148 0.0 1.6 0.00 0.00 0.00 99 1009.0
20260904071157 7 155 3.2 4.8 0.00 0.00 0.00 99 1009.1
20260904070656 7 153 3.2 3.2 0.00 0.00 0.00 99 1008.8
20260904070155 7 154 1.6 1.6 0.00 0.00 0.00 99 1009.1
20260904065650 7 170 3.2 3.2 0.00 1.19 1.19 99 1009.0
20260904065147 7 148 0.0 0.0 0.00 1.19 1.19 99 1008.8
20260904064642 7 114 0.0 0.0 0.00 1.19 1.19 99 1009.0
20260904064137 7 114 0.0 0.0 0.00 1.19 1.19 99 1009.0
20260904063633 7 114 0.0 0.0 0.00 1.19 1.19 99 1008.7
20260904063128 7 114 0.0 0.0 0.00 1.19 1.19 99 1008.6
20260904062624 7 114 0.0 0.0 0.00 1.19 1.19 99 1008.4
20260904062120 7 113 0.0 0.0 0.00 1.19 1.19 99 1008.5
20260904061615 7 120 0.0 0.0 0.00 1.19 1.19 99 1008.6
20260904061112 7 118 0.0 0.0 0.00 1.19 1.19 99 1008.3
20260904060608 7 120 0.0 0.0 0.00 1.19 1.19 99 1008.5
20260904060103 7 148 0.0 0.0 0.00 1.19 1.19 99 1008.5
20260904055558 7 148 0.0 0.0 0.00 1.19 1.19 98 1008.7
20260904055053 7 147 0.0 0.0 0.00 1.19 1.19 98 1008.7
20260904054549 7 142 0.0 0.0 0.00 1.19 1.19 98 1009.1
20260904054045 7 125 0.0 0.0 0.00 1.19 1.19 98 1008.8
20260904053544 7 125 0.0 0.0 0.00 1.19 1.19 98 1008.6
20260904053040 7 123 0.0 0.0 0.00 1.19 1.19 98 1008.6
20260904052536 7 120 0.0 0.0 0.00 1.19 1.19 97 1008.6
20260904052031 8 130 0.0 0.0 0.00 1.19 1.19 97 1008.6
20260904051528 8 144 0.0 0.0 0.13 1.19 1.19 97 1008.6
20260904051027 8 139 0.0 0.0 0.13 1.19 1.19 97 1008.6
20260904050523 7 138 0.0 0.0 0.00 1.17 1.17 97 1008.6
20260904050019 7 139 0.0 0.0 0.00 1.17 1.17 96 1008.7
20260904045514 8 143 0.0 0.0 0.00 1.17 1.17 96 1009.0